W6CX Weather Reports


time (UTC)temp
C
wind
direction
speed
KPH
gust
KPH
rain 1hr
cm
rain 24hr
cm
rain mn
cm
humidity
%
barometer
mb
20260503174603 7 239 6.4 24.1 0.00 0.00 0.00 85 1014.3
20260503173048 8 208 4.8 19.3 0.00 0.00 0.00 79 1014.1
20260503171544 9 126 6.4 16.1 0.00 0.00 0.00 70 1014.0
20260503081554 13 93 4.8 11.3 0.00 0.00 0.00 57 1013.4
20260503071608 13 129 6.4 11.3 0.00 0.00 0.00 40 1013.7
20260503070110 13 123 3.2 11.3 0.00 0.00 0.00 38 1013.8
20260503054557 14 127 6.4 19.3 0.00 0.00 0.00 50 1014.1
20260503053043 14 229 8.0 17.7 0.00 0.00 0.00 51 1014.2
20260503051552 13 142 6.4 22.5 0.00 0.00 0.00 50 1014.2
20260503050056 13 117 4.8 19.3 0.00 0.00 0.00 50 1014.2
20260503044554 12 146 4.8 19.3 0.00 0.00 0.00 56 1014.0
20260503043047 12 105 4.8 16.1 0.00 0.00 0.00 69 1013.7
20260503041545 11 131 6.4 20.9 0.00 0.00 0.00 75 1013.6
20260503040049 11 180 6.4 20.9 0.00 0.00 0.00 74 1013.5
20260503034552 11 150 8.0 20.9 0.00 0.00 0.00 72 1013.4
20260503033057 12 140 11.3 29.0 0.00 0.00 0.00 61 1013.1
20260503031545 12 142 9.7 22.5 0.00 0.00 0.00 58 1013.3
20260503030050 13 144 14.5 29.0 0.00 0.00 0.00 53 1013.2
20260503024549 12 167 8.0 27.4 0.00 0.00 0.00 66 1013.3
20260503023050 12 140 8.0 32.2 0.00 0.00 0.00 66 1013.3
20260503021552 12 137 9.7 40.2 0.00 0.00 0.00 66 1013.1
20260503020048 12 153 9.7 33.8 0.00 0.00 0.00 67 1013.4
20260503014601 12 157 8.0 33.8 0.00 0.00 0.00 76 1013.4
20260503013045 12 194 9.7 25.7 0.00 0.00 0.00 73 1013.6
20260503011600 13 154 11.3 35.4 0.00 0.00 0.00 69 1013.8
20260503010048 13 212 11.3 35.4 0.00 0.00 0.00 67 1013.8
20260503004545 13 150 9.7 32.2 0.00 0.00 0.00 62 1013.8
20260503003053 14 122 9.7 30.6 0.00 0.00 0.00 58 1013.8
20260503001542 14 144 9.7 24.1 0.00 0.00 0.00 55 1013.9
20260503000049 15 153 12.9 40.2 0.00 0.00 0.00 52 1014.0
20260502234608 15 172 12.9 33.8 0.00 0.00 0.00 46 1014.1
20260502233048 15 82 11.3 27.4 0.00 0.00 0.00 44 1014.3
20260502231550 15 147 11.3 29.0 0.00 0.00 0.00 43 1014.4
20260502230046 15 152 6.4 29.0 0.00 0.00 0.00 41 1014.7
20260502224548 15 98 8.0 24.1 0.00 0.00 0.00 39 1014.9
20260502223100 16 191 9.7 35.4 0.00 0.00 0.00 34 1015.1
20260502221549 16 130 8.0 33.8 0.00 0.00 0.00 28 1015.3
20260502220100 16 138 9.7 22.5 0.00 0.00 0.00 30 1015.4
20260502214553 16 129 4.8 20.9 0.00 0.00 0.00 28 1015.4
20260502213051 17 135 9.7 27.4 0.00 0.00 0.00 27 1015.5
20260502211550 17 125 9.7 29.0 0.00 0.00 0.00 28 1015.5
20260502210050 17 146 9.7 25.7 0.00 0.00 0.00 26 1015.8
20260502204547 16 127 14.5 40.2 0.00 0.00 0.00 27 1016.0
20260502203107 16 136 9.7 37.0 0.00 0.00 0.00 31 1016.1
20260502201548 16 133 9.7 29.0 0.00 0.00 0.00 29 1016.1
20260502200056 16 153 14.5 30.6 0.00 0.00 0.00 31 1016.2
20260502194542 16 154 12.9 38.6 0.00 0.00 0.00 29 1016.2
20260502193101 16 151 11.3 40.2 0.00 0.00 0.00 31 1016.1
20260502191545 16 143 16.1 41.8 0.00 0.00 0.00 34 1016.2
20260502190049 16 148 6.4 30.6 0.00 0.00 0.00 33 1016.2
20260502184553 15 128 11.3 27.4 0.00 0.00 0.00 34 1016.2
20260502183044 16 122 9.7 25.7 0.00 0.00 0.00 33 1016.1
20260502181546 16 155 9.7 24.1 0.00 0.00 0.00 35 1016.2